Year,Month,Day,Hour,Minute,Value (Times are PST for temperature in C)
2020,04,14,00,00,8.70
2020,04,14,00,01,8.70
2020,04,14,00,02,8.70
2020,04,14,00,03,8.70
2020,04,14,00,04,8.70
2020,04,14,00,05,8.70
2020,04,14,00,06,8.80
2020,04,14,00,07,8.70
2020,04,14,00,08,8.70
2020,04,14,00,09,8.70
2020,04,14,00,10,8.70
2020,04,14,00,11,8.70
2020,04,14,00,12,8.70
2020,04,14,00,13,8.70
2020,04,14,00,14,8.70
2020,04,14,00,15,8.70
2020,04,14,00,16,8.70
2020,04,14,00,17,8.70
2020,04,14,00,18,8.70
2020,04,14,00,19,8.70
2020,04,14,00,20,8.60
2020,04,14,00,21,8.60
2020,04,14,00,22,8.60
2020,04,14,00,23,8.60
2020,04,14,00,24,8.60
2020,04,14,00,25,8.50
2020,04,14,00,26,8.50
2020,04,14,00,27,8.40
2020,04,14,00,28,8.40
2020,04,14,00,29,8.40
2020,04,14,00,30,8.30
2020,04,14,00,31,8.30
2020,04,14,00,32,8.40
2020,04,14,00,33,8.40
2020,04,14,00,34,8.30
2020,04,14,00,35,8.30
2020,04,14,00,36,8.30
2020,04,14,00,37,8.40
2020,04,14,00,38,8.30
2020,04,14,00,39,8.30
2020,04,14,00,40,8.40
2020,04,14,00,41,8.30
2020,04,14,00,42,8.30
2020,04,14,00,43,8.30
2020,04,14,00,44,8.30
2020,04,14,00,45,8.30
2020,04,14,00,46,8.30
2020,04,14,00,47,8.30
2020,04,14,00,48,8.30
2020,04,14,00,49,8.20
2020,04,14,00,50,8.20
2020,04,14,00,51,8.20
2020,04,14,00,52,8.10
2020,04,14,00,53,8.10
2020,04,14,00,54,8.10
2020,04,14,00,55,8.00
2020,04,14,00,56,8.00
2020,04,14,00,57,7.90
2020,04,14,00,58,7.90
2020,04,14,00,59,7.90
2020,04,14,01,00,7.90
2020,04,14,01,01,7.90
2020,04,14,01,02,7.80
2020,04,14,01,03,7.80
2020,04,14,01,04,7.80
2020,04,14,01,05,7.70
2020,04,14,01,06,7.70
2020,04,14,01,07,7.60
2020,04,14,01,08,7.60
2020,04,14,01,09,7.50
2020,04,14,01,10,7.50
2020,04,14,01,11,7.40
2020,04,14,01,12,7.40
2020,04,14,01,13,7.40
2020,04,14,01,14,7.30
2020,04,14,01,15,7.30
2020,04,14,01,16,7.20
2020,04,14,01,17,7.20
2020,04,14,01,18,7.20
2020,04,14,01,19,7.10
2020,04,14,01,20,7.10
2020,04,14,01,21,7.10
2020,04,14,01,22,7.10
2020,04,14,01,23,7.00
2020,04,14,01,24,7.00
2020,04,14,01,25,7.10
2020,04,14,01,26,7.10
2020,04,14,01,27,7.10
2020,04,14,01,28,7.20
2020,04,14,01,29,7.20
2020,04,14,01,30,7.20
2020,04,14,01,31,7.20
2020,04,14,01,32,7.20
2020,04,14,01,33,7.20
2020,04,14,01,34,7.20
2020,04,14,01,35,7.20
2020,04,14,01,36,7.20
2020,04,14,01,37,7.10
2020,04,14,01,38,7.10
2020,04,14,01,39,7.10
2020,04,14,01,40,7.00
2020,04,14,01,41,7.00
2020,04,14,01,42,7.00
2020,04,14,01,43,6.90
2020,04,14,01,44,6.90
2020,04,14,01,45,6.90
2020,04,14,01,46,6.80
2020,04,14,01,47,6.80
2020,04,14,01,48,6.70
2020,04,14,01,49,6.70
2020,04,14,01,50,6.60
2020,04,14,01,51,6.60
2020,04,14,01,52,6.60
2020,04,14,01,53,6.60
2020,04,14,01,54,6.60
2020,04,14,01,55,6.60
2020,04,14,01,56,6.50
2020,04,14,01,57,6.50
2020,04,14,01,58,6.50
2020,04,14,01,59,6.50
2020,04,14,02,00,6.40
2020,04,14,02,01,6.40
2020,04,14,02,02,6.30
2020,04,14,02,03,6.30
2020,04,14,02,04,6.30
2020,04,14,02,05,6.20
2020,04,14,02,06,6.20
2020,04,14,02,07,6.10
2020,04,14,02,08,6.00
2020,04,14,02,09,6.00
2020,04,14,02,10,5.90
2020,04,14,02,11,6.00
2020,04,14,02,12,6.10
2020,04,14,02,13,6.10
2020,04,14,02,14,6.20
2020,04,14,02,15,6.20
2020,04,14,02,16,6.20
2020,04,14,02,17,6.30
2020,04,14,02,18,6.30
2020,04,14,02,19,6.30
2020,04,14,02,20,6.30
2020,04,14,02,21,6.20
2020,04,14,02,22,6.20
2020,04,14,02,23,6.10
2020,04,14,02,24,6.10
2020,04,14,02,25,6.00
2020,04,14,02,26,6.00
2020,04,14,02,27,5.90
2020,04,14,02,28,5.80
2020,04,14,02,29,5.80
2020,04,14,02,30,5.70
2020,04,14,02,31,5.60
2020,04,14,02,32,5.60
2020,04,14,02,33,5.50
2020,04,14,02,34,5.50
2020,04,14,02,35,5.50
2020,04,14,02,36,5.50
2020,04,14,02,37,5.50
2020,04,14,02,38,5.50
2020,04,14,02,39,5.40
2020,04,14,02,40,5.40
2020,04,14,02,41,5.40
2020,04,14,02,42,5.40
2020,04,14,02,43,5.40
2020,04,14,02,44,5.30
2020,04,14,02,45,5.30
2020,04,14,02,46,5.30
2020,04,14,02,47,5.30
2020,04,14,02,48,5.20
2020,04,14,02,49,5.20
2020,04,14,02,50,5.20
2020,04,14,02,51,5.20
2020,04,14,02,52,5.10
2020,04,14,02,53,5.10
2020,04,14,02,54,5.10
2020,04,14,02,55,5.10
2020,04,14,02,56,5.10
2020,04,14,02,57,5.00
2020,04,14,02,58,5.00
2020,04,14,02,59,5.00
2020,04,14,03,00,4.90
2020,04,14,03,01,4.90
2020,04,14,03,02,4.90
2020,04,14,03,03,4.90
2020,04,14,03,04,4.90
2020,04,14,03,05,4.90
2020,04,14,03,06,4.90
2020,04,14,03,07,4.90
2020,04,14,03,08,4.90
2020,04,14,03,09,4.90
2020,04,14,03,10,4.90
2020,04,14,03,11,4.90
2020,04,14,03,12,4.90
2020,04,14,03,13,4.90
2020,04,14,03,14,4.90
2020,04,14,03,15,4.80
2020,04,14,03,16,4.80
2020,04,14,03,17,4.80
2020,04,14,03,18,4.80
2020,04,14,03,19,4.70
2020,04,14,03,20,4.70
2020,04,14,03,21,4.70
2020,04,14,03,22,4.60
2020,04,14,03,23,4.60
2020,04,14,03,24,4.60
2020,04,14,03,25,4.60
2020,04,14,03,26,4.60
2020,04,14,03,27,4.50
2020,04,14,03,28,4.50
2020,04,14,03,29,4.50
2020,04,14,03,30,4.50
2020,04,14,03,31,4.50
2020,04,14,03,32,4.50
2020,04,14,03,33,4.50
2020,04,14,03,34,4.40
2020,04,14,03,35,4.40
2020,04,14,03,36,4.40
2020,04,14,03,37,4.40
2020,04,14,03,38,4.40
2020,04,14,03,39,4.40
2020,04,14,03,40,4.40
2020,04,14,03,41,4.40
2020,04,14,03,42,4.30
2020,04,14,03,43,4.30
2020,04,14,03,44,4.30
2020,04,14,03,45,4.30
2020,04,14,03,46,4.30
2020,04,14,03,47,4.30
2020,04,14,03,48,4.30
2020,04,14,03,49,4.20
2020,04,14,03,50,4.20
2020,04,14,03,51,4.20
2020,04,14,03,52,4.20
2020,04,14,03,53,4.20
2020,04,14,03,54,4.20
2020,04,14,03,55,4.10
2020,04,14,03,56,4.10
2020,04,14,03,57,4.10
2020,04,14,03,58,4.10
2020,04,14,03,59,4.10
2020,04,14,04,00,4.10
2020,04,14,04,01,4.10
2020,04,14,04,02,4.10
2020,04,14,04,03,4.10
2020,04,14,04,04,4.10
2020,04,14,04,05,4.10
2020,04,14,04,06,4.10
2020,04,14,04,07,4.10
2020,04,14,04,08,4.10
2020,04,14,04,09,4.10
2020,04,14,04,10,4.10
2020,04,14,04,11,4.10
2020,04,14,04,12,4.10
2020,04,14,04,13,4.10
2020,04,14,04,14,4.10
2020,04,14,04,15,4.10
2020,04,14,04,16,4.10
2020,04,14,04,17,4.10
2020,04,14,04,18,4.20
2020,04,14,04,19,4.20
2020,04,14,04,20,4.20
2020,04,14,04,21,4.20
2020,04,14,04,22,4.20
2020,04,14,04,23,4.20
2020,04,14,04,24,4.20
2020,04,14,04,25,4.20
2020,04,14,04,26,4.30
2020,04,14,04,27,4.30
2020,04,14,04,28,4.30
2020,04,14,04,29,4.30
2020,04,14,04,30,4.30
2020,04,14,04,31,4.30
2020,04,14,04,32,4.30
2020,04,14,04,33,4.30
2020,04,14,04,34,4.30
2020,04,14,04,35,4.30
2020,04,14,04,36,4.30
2020,04,14,04,37,4.40
2020,04,14,04,38,4.40
2020,04,14,04,39,4.40
2020,04,14,04,40,4.40
2020,04,14,04,41,4.40
2020,04,14,04,42,4.50
2020,04,14,04,43,4.50
2020,04,14,04,44,4.50
2020,04,14,04,45,4.50
2020,04,14,04,46,4.50
2020,04,14,04,47,4.50
2020,04,14,04,48,4.50
2020,04,14,04,49,4.50
2020,04,14,04,50,4.50
2020,04,14,04,51,4.60
2020,04,14,04,52,4.60
2020,04,14,04,53,4.60
2020,04,14,04,54,4.60
2020,04,14,04,55,4.60
2020,04,14,04,56,4.60
2020,04,14,04,57,4.60
2020,04,14,04,58,4.60
2020,04,14,04,59,4.60
2020,04,14,05,00,4.60
2020,04,14,05,01,4.60
2020,04,14,05,02,4.60
2020,04,14,05,03,4.60
2020,04,14,05,04,4.60
2020,04,14,05,05,4.60
2020,04,14,05,06,4.60
2020,04,14,05,07,4.60
2020,04,14,05,08,4.60
2020,04,14,05,09,4.60
2020,04,14,05,10,4.60
2020,04,14,05,11,4.60
2020,04,14,05,12,4.50
2020,04,14,05,13,4.50
2020,04,14,05,14,4.50
2020,04,14,05,15,4.50
2020,04,14,05,16,4.50
2020,04,14,05,17,4.50
2020,04,14,05,18,4.50
2020,04,14,05,19,4.50
2020,04,14,05,20,4.40
2020,04,14,05,21,4.40
2020,04,14,05,22,4.40
2020,04,14,05,23,4.40
2020,04,14,05,24,4.40
2020,04,14,05,25,4.40
2020,04,14,05,26,4.40
2020,04,14,05,27,4.40
2020,04,14,05,28,4.40
2020,04,14,05,29,4.40
2020,04,14,05,30,4.40
2020,04,14,05,31,4.40
2020,04,14,05,32,4.30
2020,04,14,05,33,4.30
2020,04,14,05,34,4.30
2020,04,14,05,35,4.30
2020,04,14,05,36,4.30
2020,04,14,05,37,4.40
2020,04,14,05,38,4.40
2020,04,14,05,39,4.40
2020,04,14,05,40,4.30
2020,04,14,05,41,4.30
2020,04,14,05,42,4.30
2020,04,14,05,43,4.30
2020,04,14,05,44,4.30
2020,04,14,05,45,4.30
2020,04,14,05,46,4.30
2020,04,14,05,47,4.30
2020,04,14,05,48,4.30
2020,04,14,05,49,4.30
2020,04,14,05,50,4.30
2020,04,14,05,51,4.20
2020,04,14,05,52,4.20
2020,04,14,05,53,4.20
2020,04,14,05,54,4.20
2020,04,14,05,55,4.20
2020,04,14,05,56,4.20
2020,04,14,05,57,4.10
2020,04,14,05,58,4.10
2020,04,14,05,59,4.10
2020,04,14,06,00,4.10
2020,04,14,06,01,4.10
2020,04,14,06,02,4.10
2020,04,14,06,03,4.00
2020,04,14,06,04,4.00
2020,04,14,06,05,4.00
2020,04,14,06,06,4.00
2020,04,14,06,07,3.90
2020,04,14,06,08,3.90
2020,04,14,06,09,3.90
2020,04,14,06,10,3.90
2020,04,14,06,11,3.90
2020,04,14,06,12,3.80
2020,04,14,06,13,3.80
2020,04,14,06,14,3.80
2020,04,14,06,15,3.80
2020,04,14,06,16,3.80
2020,04,14,06,17,3.80
2020,04,14,06,18,3.80
2020,04,14,06,19,3.70
2020,04,14,06,20,3.70
2020,04,14,06,21,3.70
2020,04,14,06,22,3.70
2020,04,14,06,23,3.70
2020,04,14,06,24,3.70
2020,04,14,06,25,3.70
2020,04,14,06,26,3.70
2020,04,14,06,27,3.70
2020,04,14,06,28,3.60
2020,04,14,06,29,3.60
2020,04,14,06,30,3.60
2020,04,14,06,31,3.60
2020,04,14,06,32,3.60
2020,04,14,06,33,3.60
2020,04,14,06,34,3.60
2020,04,14,06,35,3.60
2020,04,14,06,36,3.60
2020,04,14,06,37,3.50
2020,04,14,06,38,3.50
2020,04,14,06,39,3.50
2020,04,14,06,40,3.50
2020,04,14,06,41,3.50
2020,04,14,06,42,3.50
2020,04,14,06,43,3.40
2020,04,14,06,44,3.40
2020,04,14,06,45,3.40
2020,04,14,06,46,3.40
2020,04,14,06,47,3.40
2020,04,14,06,48,3.40
2020,04,14,06,49,3.40
2020,04,14,06,50,3.40
2020,04,14,06,51,3.40
2020,04,14,06,52,3.40
2020,04,14,06,53,3.40
2020,04,14,06,54,3.40
2020,04,14,06,55,3.40
2020,04,14,06,56,3.30
2020,04,14,06,57,3.30
2020,04,14,06,58,3.30
2020,04,14,06,59,3.30
2020,04,14,07,00,3.30
2020,04,14,07,01,3.30
2020,04,14,07,02,3.30
2020,04,14,07,03,3.30
2020,04,14,07,04,3.30
2020,04,14,07,05,3.30
2020,04,14,07,06,3.30
2020,04,14,07,07,3.30
2020,04,14,07,08,3.30
2020,04,14,07,09,3.30
2020,04,14,07,10,3.30
2020,04,14,07,11,3.30
2020,04,14,07,12,3.30
2020,04,14,07,13,3.30
2020,04,14,07,14,3.30
2020,04,14,07,15,3.30
2020,04,14,07,16,3.20
2020,04,14,07,17,3.20
2020,04,14,07,18,3.20
2020,04,14,07,19,3.20
2020,04,14,07,20,3.30
2020,04,14,07,21,3.30
2020,04,14,07,22,3.30
2020,04,14,07,23,3.30
2020,04,14,07,24,3.30
2020,04,14,07,25,3.30
2020,04,14,07,26,3.30
2020,04,14,07,27,3.30
2020,04,14,07,28,3.30
2020,04,14,07,29,3.30
2020,04,14,07,30,3.30
2020,04,14,07,31,3.30
2020,04,14,07,32,3.30
2020,04,14,07,33,3.40
2020,04,14,07,34,3.40
2020,04,14,07,35,3.40
2020,04,14,07,36,3.40
2020,04,14,07,37,3.40
2020,04,14,07,38,3.40
2020,04,14,07,39,3.40
2020,04,14,07,40,3.40
2020,04,14,07,41,3.40
2020,04,14,07,42,3.40
2020,04,14,07,43,3.50
2020,04,14,07,44,3.50
2020,04,14,07,45,3.50
2020,04,14,07,46,3.60
2020,04,14,07,47,3.70
2020,04,14,07,48,3.70
2020,04,14,07,49,3.80
2020,04,14,07,50,3.80
2020,04,14,07,51,3.80
2020,04,14,07,52,3.90
2020,04,14,07,53,3.90
2020,04,14,07,54,4.00
2020,04,14,07,55,4.00
2020,04,14,07,56,4.10
2020,04,14,07,57,4.10
2020,04,14,07,58,4.10
2020,04,14,07,59,4.20
2020,04,14,08,00,4.30
2020,04,14,08,01,4.30
2020,04,14,08,02,4.40
2020,04,14,08,03,4.50
2020,04,14,08,04,4.60
2020,04,14,08,05,4.60
2020,04,14,08,06,4.70
2020,04,14,08,07,4.70
2020,04,14,08,08,4.80
2020,04,14,08,09,4.80
2020,04,14,08,10,4.90
2020,04,14,08,11,5.00
2020,04,14,08,12,5.10
2020,04,14,08,13,5.20
2020,04,14,08,14,5.20
2020,04,14,08,15,5.30
2020,04,14,08,16,5.40
2020,04,14,08,17,5.50
2020,04,14,08,18,5.50
2020,04,14,08,19,5.60
2020,04,14,08,20,5.60
2020,04,14,08,21,5.70
2020,04,14,08,22,5.70
2020,04,14,08,23,5.80
2020,04,14,08,24,5.90
2020,04,14,08,25,6.00
2020,04,14,08,26,6.00
2020,04,14,08,27,6.20
2020,04,14,08,28,6.30
2020,04,14,08,29,6.40
2020,04,14,08,30,6.40
2020,04,14,08,31,6.50
2020,04,14,08,32,6.60
2020,04,14,08,33,6.70
2020,04,14,08,34,6.80
2020,04,14,08,35,6.80
2020,04,14,08,36,6.90
2020,04,14,08,37,7.00
2020,04,14,08,38,7.00
2020,04,14,08,39,7.10
2020,04,14,08,40,7.10
2020,04,14,08,41,7.20
2020,04,14,08,42,7.20
2020,04,14,08,43,7.30
2020,04,14,08,44,7.30
2020,04,14,08,45,7.40
2020,04,14,08,46,7.40
2020,04,14,08,47,7.50
2020,04,14,08,48,7.50
2020,04,14,08,49,7.50
2020,04,14,08,50,7.60
2020,04,14,08,51,7.60
2020,04,14,08,52,7.60
2020,04,14,08,53,7.60
2020,04,14,08,54,7.60
2020,04,14,08,55,7.60
2020,04,14,08,56,7.70
2020,04,14,08,57,7.70
2020,04,14,08,58,7.70
2020,04,14,08,59,7.80
2020,04,14,09,00,7.80
2020,04,14,09,01,7.80
2020,04,14,09,02,7.90
2020,04,14,09,03,7.90
2020,04,14,09,04,8.00
2020,04,14,09,05,8.10
2020,04,14,09,06,8.10
2020,04,14,09,07,8.10
2020,04,14,09,08,8.20
2020,04,14,09,09,8.20
2020,04,14,09,10,8.20
2020,04,14,09,11,8.30
2020,04,14,09,12,8.40
2020,04,14,09,13,8.40
2020,04,14,09,14,8.50
2020,04,14,09,15,8.60
2020,04,14,09,16,8.60
2020,04,14,09,17,8.70
2020,04,14,09,18,8.70
2020,04,14,09,19,8.80
2020,04,14,09,20,8.80
2020,04,14,09,21,8.80
2020,04,14,09,22,8.90
2020,04,14,09,23,8.90
2020,04,14,09,24,8.90
2020,04,14,09,25,8.90
2020,04,14,09,26,9.00
2020,04,14,09,27,9.00
2020,04,14,09,28,9.10
2020,04,14,09,29,9.10
2020,04,14,09,30,9.10
2020,04,14,09,31,9.10
2020,04,14,09,32,9.10
2020,04,14,09,33,9.10
2020,04,14,09,34,9.10
2020,04,14,09,35,9.10
2020,04,14,09,36,9.10
2020,04,14,09,37,9.10
2020,04,14,09,38,9.10
2020,04,14,09,39,9.10
2020,04,14,09,40,9.10
2020,04,14,09,41,9.10
2020,04,14,09,42,9.10
2020,04,14,09,43,9.20
2020,04,14,09,44,9.20
2020,04,14,09,45,9.30
2020,04,14,09,46,9.40
2020,04,14,09,47,9.50
2020,04,14,09,48,9.70
2020,04,14,09,49,9.80
2020,04,14,09,50,9.80
2020,04,14,09,51,9.80
2020,04,14,09,52,9.90
2020,04,14,09,53,9.90
2020,04,14,09,54,9.80
2020,04,14,09,55,9.80
2020,04,14,09,56,9.80
2020,04,14,09,57,9.90
2020,04,14,09,58,9.90
2020,04,14,09,59,10.00
2020,04,14,10,00,10.10
2020,04,14,10,01,10.10
2020,04,14,10,02,10.10
2020,04,14,10,03,10.10
2020,04,14,10,04,10.10
2020,04,14,10,05,10.10
2020,04,14,10,06,10.00
2020,04,14,10,07,10.00
2020,04,14,10,08,10.00
2020,04,14,10,09,10.10
2020,04,14,10,10,10.20
2020,04,14,10,11,10.30
2020,04,14,10,12,10.30
2020,04,14,10,13,10.40
2020,04,14,10,14,10.50
2020,04,14,10,15,10.50
2020,04,14,10,16,10.60
2020,04,14,10,17,10.60
2020,04,14,10,18,10.60
2020,04,14,10,19,10.70
2020,04,14,10,20,10.80
2020,04,14,10,21,10.90
2020,04,14,10,22,10.90
2020,04,14,10,23,10.90
2020,04,14,10,24,11.20
2020,04,14,10,25,11.30
2020,04,14,10,26,11.50
2020,04,14,10,27,11.50
2020,04,14,10,28,11.60
2020,04,14,10,29,11.50
2020,04,14,10,30,11.50
2020,04,14,10,31,11.40
2020,04,14,10,32,11.40
2020,04,14,10,33,11.40
2020,04,14,10,34,11.40
2020,04,14,10,35,11.50
2020,04,14,10,36,11.60
2020,04,14,10,37,11.70
2020,04,14,10,38,11.80
2020,04,14,10,39,12.00
2020,04,14,10,40,12.10
2020,04,14,10,41,12.20
2020,04,14,10,42,12.30
2020,04,14,10,43,12.40
2020,04,14,10,44,12.50
2020,04,14,10,45,12.60
2020,04,14,10,46,12.70
2020,04,14,10,47,12.70
2020,04,14,10,48,12.80
2020,04,14,10,49,12.80
2020,04,14,10,50,12.90
2020,04,14,10,51,13.00
2020,04,14,10,52,13.00
2020,04,14,10,53,13.00
2020,04,14,10,54,13.00
2020,04,14,10,55,13.00
2020,04,14,10,56,13.00
2020,04,14,10,57,13.10
2020,04,14,10,58,13.20
2020,04,14,10,59,13.30
2020,04,14,11,00,13.40
2020,04,14,11,01,13.50
2020,04,14,11,02,13.50
2020,04,14,11,03,13.60
2020,04,14,11,04,13.60
2020,04,14,11,05,13.60
2020,04,14,11,06,13.60
2020,04,14,11,07,13.50
2020,04,14,11,08,13.60
2020,04,14,11,09,13.60
2020,04,14,11,10,13.70
2020,04,14,11,11,13.70
2020,04,14,11,12,13.70
2020,04,14,11,13,13.80
2020,04,14,11,14,13.80
2020,04,14,11,15,13.90
2020,04,14,11,16,13.90
2020,04,14,11,17,13.90
2020,04,14,11,18,14.00
2020,04,14,11,19,14.00
2020,04,14,11,20,14.10
2020,04,14,11,21,14.10
2020,04,14,11,22,14.20
2020,04,14,11,23,14.20
2020,04,14,11,24,14.20
2020,04,14,11,25,14.20
2020,04,14,11,26,14.30
2020,04,14,11,27,14.40
2020,04,14,11,28,14.50
2020,04,14,11,29,14.60
2020,04,14,11,30,14.70
2020,04,14,11,31,14.60
2020,04,14,11,32,14.60
2020,04,14,11,33,14.60
2020,04,14,11,34,14.70
2020,04,14,11,35,14.80
2020,04,14,11,36,14.80
2020,04,14,11,37,14.80
2020,04,14,11,38,14.80
2020,04,14,11,39,14.80
2020,04,14,11,40,14.80
2020,04,14,11,41,14.80
2020,04,14,11,42,14.80
2020,04,14,11,43,14.90
2020,04,14,11,44,14.90
2020,04,14,11,45,14.90
2020,04,14,11,46,14.90
2020,04,14,11,47,15.00
2020,04,14,11,48,15.00
2020,04,14,11,49,15.00
2020,04,14,11,50,15.10
2020,04,14,11,51,15.20
2020,04,14,11,52,15.20
2020,04,14,11,53,15.30
2020,04,14,11,54,15.30
2020,04,14,11,55,15.40
2020,04,14,11,56,15.40
2020,04,14,11,57,15.50
2020,04,14,11,58,15.50
2020,04,14,11,59,15.70
2020,04,14,12,00,15.70
2020,04,14,12,01,15.80
2020,04,14,12,02,15.90
2020,04,14,12,03,15.80
2020,04,14,12,04,15.80
2020,04,14,12,05,15.80
2020,04,14,12,06,15.80
2020,04,14,12,07,15.80
2020,04,14,12,08,15.80
2020,04,14,12,09,15.80
2020,04,14,12,10,15.80
2020,04,14,12,11,15.90
2020,04,14,12,12,16.00
2020,04,14,12,13,16.10
2020,04,14,12,14,16.20
2020,04,14,12,15,16.20
2020,04,14,12,16,16.20
2020,04,14,12,17,16.30
2020,04,14,12,18,16.30
2020,04,14,12,19,16.40
2020,04,14,12,20,16.50
2020,04,14,12,21,16.50
2020,04,14,12,22,16.60
2020,04,14,12,23,16.60
2020,04,14,12,24,16.50
2020,04,14,12,25,16.40
2020,04,14,12,26,16.30
2020,04,14,12,27,16.30
2020,04,14,12,28,16.40
2020,04,14,12,29,16.50
2020,04,14,12,30,16.60
2020,04,14,12,31,16.70
2020,04,14,12,32,16.80
2020,04,14,12,33,16.80
2020,04,14,12,34,16.90
2020,04,14,12,35,17.00
2020,04,14,12,36,17.20
2020,04,14,12,37,17.30
2020,04,14,12,38,17.40
2020,04,14,12,39,17.50
2020,04,14,12,40,17.70
2020,04,14,12,41,17.80
2020,04,14,12,42,17.80
2020,04,14,12,43,17.80
2020,04,14,12,44,17.80
2020,04,14,12,45,17.80
2020,04,14,12,46,17.80
2020,04,14,12,47,17.70
2020,04,14,12,48,17.60
2020,04,14,12,49,17.60
2020,04,14,12,50,17.30
2020,04,14,12,51,17.20
2020,04,14,12,52,17.10
2020,04,14,12,53,17.10
2020,04,14,12,54,17.10
2020,04,14,12,55,17.10
2020,04,14,12,56,17.20
2020,04,14,12,57,17.20
2020,04,14,12,58,17.20
2020,04,14,12,59,17.20
2020,04,14,13,00,17.30
2020,04,14,13,01,17.40
2020,04,14,13,02,17.50
2020,04,14,13,03,17.60
2020,04,14,13,04,17.70
2020,04,14,13,05,17.70
2020,04,14,13,06,17.70
2020,04,14,13,07,17.60
2020,04,14,13,08,17.60
2020,04,14,13,09,17.60
2020,04,14,13,10,17.60
2020,04,14,13,11,17.60
2020,04,14,13,12,17.60
2020,04,14,13,13,17.50
2020,04,14,13,14,17.40
2020,04,14,13,15,17.40
2020,04,14,13,16,17.40
2020,04,14,13,17,17.50
2020,04,14,13,18,17.60
2020,04,14,13,19,17.70
2020,04,14,13,20,17.70
2020,04,14,13,21,17.80
2020,04,14,13,22,17.80
2020,04,14,13,23,17.90
2020,04,14,13,24,17.90
2020,04,14,13,25,17.90
2020,04,14,13,26,18.00
2020,04,14,13,27,18.00
2020,04,14,13,28,18.00
2020,04,14,13,29,18.10
2020,04,14,13,30,18.20
2020,04,14,13,31,18.30
2020,04,14,13,32,18.30
2020,04,14,13,33,18.30
2020,04,14,13,34,18.30
2020,04,14,13,35,18.30
2020,04,14,13,36,18.30
2020,04,14,13,37,18.30
2020,04,14,13,38,18.30
2020,04,14,13,39,18.30
2020,04,14,13,40,18.30
2020,04,14,13,41,18.40
2020,04,14,13,42,18.30
2020,04,14,13,43,18.30
2020,04,14,13,44,18.30
2020,04,14,13,45,18.30
2020,04,14,13,46,18.40
2020,04,14,13,47,18.30
2020,04,14,13,48,18.30
2020,04,14,13,49,18.30
2020,04,14,13,50,18.20
2020,04,14,13,51,18.20
2020,04,14,13,52,18.30
2020,04,14,13,53,18.20
2020,04,14,13,54,18.20
2020,04,14,13,55,18.20
2020,04,14,13,56,18.20
2020,04,14,13,57,18.20
2020,04,14,13,58,18.20
2020,04,14,13,59,18.20
2020,04,14,14,00,18.20
2020,04,14,14,01,18.20
2020,04,14,14,02,18.20
2020,04,14,14,03,18.20
2020,04,14,14,04,18.20
2020,04,14,14,05,18.20
2020,04,14,14,06,18.20
2020,04,14,14,07,18.10
2020,04,14,14,08,18.10
2020,04,14,14,09,18.00
2020,04,14,14,10,18.00
2020,04,14,14,11,18.00
2020,04,14,14,12,18.00
2020,04,14,14,13,18.00
2020,04,14,14,14,17.90
2020,04,14,14,15,17.90
2020,04,14,14,16,18.00
2020,04,14,14,17,18.00
2020,04,14,14,18,18.00
2020,04,14,14,19,18.00
2020,04,14,14,20,18.00
2020,04,14,14,21,17.90
2020,04,14,14,22,17.80
2020,04,14,14,23,17.70
2020,04,14,14,24,17.70
2020,04,14,14,25,17.80
2020,04,14,14,26,17.90
2020,04,14,14,27,18.00
2020,04,14,14,28,18.10
2020,04,14,14,29,18.10
2020,04,14,14,30,18.10
2020,04,14,14,31,18.10
2020,04,14,14,32,18.10
2020,04,14,14,33,18.10
2020,04,14,14,34,18.20
2020,04,14,14,35,18.30
2020,04,14,14,36,18.30
2020,04,14,14,37,18.30
2020,04,14,14,38,18.20
2020,04,14,14,39,18.20
2020,04,14,14,40,18.00
2020,04,14,14,41,18.00
2020,04,14,14,42,17.90
2020,04,14,14,43,18.00
2020,04,14,14,44,18.10
2020,04,14,14,45,18.20
2020,04,14,14,46,18.30
2020,04,14,14,47,18.30
2020,04,14,14,48,18.20
2020,04,14,14,49,18.10
2020,04,14,14,50,18.00
2020,04,14,14,51,18.00
2020,04,14,14,52,18.00
2020,04,14,14,53,18.10
2020,04,14,14,54,18.10
2020,04,14,14,55,18.20
2020,04,14,14,56,18.20
2020,04,14,14,57,18.20
2020,04,14,14,58,18.20
2020,04,14,14,59,18.10
2020,04,14,15,00,18.10
2020,04,14,15,01,18.10
2020,04,14,15,02,18.10
2020,04,14,15,03,18.00
2020,04,14,15,04,17.90
2020,04,14,15,05,17.90
2020,04,14,15,06,17.80
2020,04,14,15,07,17.80
2020,04,14,15,08,17.70
2020,04,14,15,09,17.70
2020,04,14,15,10,17.80
2020,04,14,15,11,17.90
2020,04,14,15,12,18.00
2020,04,14,15,13,18.10
2020,04,14,15,14,18.10
2020,04,14,15,15,18.20
2020,04,14,15,16,18.20
2020,04,14,15,17,18.10
2020,04,14,15,18,18.20
2020,04,14,15,19,18.30
2020,04,14,15,20,18.30
2020,04,14,15,21,18.30
2020,04,14,15,22,18.30
2020,04,14,15,23,18.40
2020,04,14,15,24,18.30
2020,04,14,15,25,18.20
2020,04,14,15,26,18.00
2020,04,14,15,27,17.90
2020,04,14,15,28,17.80
2020,04,14,15,29,17.80
2020,04,14,15,30,17.80
2020,04,14,15,31,17.80
2020,04,14,15,32,17.80
2020,04,14,15,33,17.80
2020,04,14,15,34,17.70
2020,04,14,15,35,17.60
2020,04,14,15,36,17.70
2020,04,14,15,37,17.70
2020,04,14,15,38,17.80
2020,04,14,15,39,17.80
2020,04,14,15,40,17.90
2020,04,14,15,41,18.00
2020,04,14,15,42,18.10
2020,04,14,15,43,18.10
2020,04,14,15,44,18.10
2020,04,14,15,45,18.00
2020,04,14,15,46,18.00
2020,04,14,15,47,18.00
2020,04,14,15,48,18.00
2020,04,14,15,49,18.00
2020,04,14,15,50,18.00
2020,04,14,15,51,18.00
2020,04,14,15,52,18.10
2020,04,14,15,53,18.10
2020,04,14,15,54,18.20
2020,04,14,15,55,18.20
2020,04,14,15,56,18.30
2020,04,14,15,57,18.30
2020,04,14,15,58,18.30
2020,04,14,15,59,18.30
2020,04,14,16,00,18.30
2020,04,14,16,01,18.20
2020,04,14,16,02,18.20
2020,04,14,16,03,18.10
2020,04,14,16,04,18.10
2020,04,14,16,05,18.10
2020,04,14,16,06,18.10
2020,04,14,16,07,18.10
2020,04,14,16,08,18.00
2020,04,14,16,09,18.00
2020,04,14,16,10,18.00
2020,04,14,16,11,17.90
2020,04,14,16,12,18.00
2020,04,14,16,13,18.00
2020,04,14,16,14,17.90
2020,04,14,16,15,18.00
2020,04,14,16,16,18.00
2020,04,14,16,17,18.00
2020,04,14,16,18,17.90
2020,04,14,16,19,17.90
2020,04,14,16,20,17.90
2020,04,14,16,21,17.90
2020,04,14,16,22,17.90
2020,04,14,16,23,17.90
2020,04,14,16,24,18.00
2020,04,14,16,25,18.00
2020,04,14,16,26,18.00
2020,04,14,16,27,18.00
2020,04,14,16,28,17.90
2020,04,14,16,29,17.80
2020,04,14,16,30,17.80
2020,04,14,16,31,17.80
2020,04,14,16,32,17.70
2020,04,14,16,33,17.80
2020,04,14,16,34,17.80
2020,04,14,16,35,17.80
2020,04,14,16,36,17.80
2020,04,14,16,37,17.80
2020,04,14,16,38,17.90
2020,04,14,16,39,17.90
2020,04,14,16,40,17.90
2020,04,14,16,41,18.00
2020,04,14,16,42,18.00
2020,04,14,16,43,18.00
2020,04,14,16,44,18.00
2020,04,14,16,45,17.90
2020,04,14,16,46,17.90
2020,04,14,16,47,17.90
2020,04,14,16,48,17.90
2020,04,14,16,49,18.00
2020,04,14,16,50,18.00
2020,04,14,16,51,18.00
2020,04,14,16,52,18.00
2020,04,14,16,53,18.00
2020,04,14,16,54,18.00
2020,04,14,16,55,18.10
2020,04,14,16,56,18.10
2020,04,14,16,57,18.10
2020,04,14,16,58,18.10
2020,04,14,16,59,18.10
2020,04,14,17,00,18.20
2020,04,14,17,01,18.20
2020,04,14,17,02,18.10
2020,04,14,17,03,18.10
2020,04,14,17,04,18.10
2020,04,14,17,05,18.10
2020,04,14,17,06,18.10
2020,04,14,17,07,18.10
2020,04,14,17,08,18.10
2020,04,14,17,09,18.20
2020,04,14,17,10,18.20
2020,04,14,17,11,18.20
2020,04,14,17,12,18.20
2020,04,14,17,13,18.20
2020,04,14,17,14,18.20
2020,04,14,17,15,18.20
2020,04,14,17,16,18.20
2020,04,14,17,17,18.20
2020,04,14,17,18,18.20
2020,04,14,17,19,18.10
2020,04,14,17,20,18.10
2020,04,14,17,21,18.00
2020,04,14,17,22,18.00
2020,04,14,17,23,17.90
2020,04,14,17,24,17.90
2020,04,14,17,25,17.90
2020,04,14,17,26,17.90
2020,04,14,17,27,17.90
2020,04,14,17,28,17.90
2020,04,14,17,29,17.80
2020,04,14,17,30,17.80
2020,04,14,17,31,17.70
2020,04,14,17,32,17.70
2020,04,14,17,33,17.70
2020,04,14,17,34,17.70
2020,04,14,17,35,17.70
2020,04,14,17,36,17.70
2020,04,14,17,37,17.70
2020,04,14,17,38,17.60
2020,04,14,17,39,17.60
2020,04,14,17,40,17.60
2020,04,14,17,41,17.60
2020,04,14,17,42,17.60
2020,04,14,17,43,17.50
2020,04,14,17,44,17.50
2020,04,14,17,45,17.50